Hickory, NC

12:41 AM EDT on October 24, 2017 (GMT -0400)
Hickory Regional

Weather History for KHKY - December, 2012

Change the Weather History Date:

Friday, December 14, 2012

  Actual Average Record
Temperature  
Mean Temperature 42 °F -  
Max Temperature 57 °F 51 °F 72 °F (1984)
Min Temperature 27 °F 31 °F 13 °F (1960)
Degree Days  
Heating Degree Days 23    
Moisture  
Dew Point 25 °F    
Average Humidity 59    
Maximum Humidity 85    
Minimum Humidity 30    
Precipitation  
Precipitation 0.00 in - - ()
Sea Level Pressure  
Sea Level Pressure 30.28 in    
Wind  
Wind Speed 1 mph (NW)    
Max Wind Speed 5 mph    
Max Gust Speed -    
Visibility 10 miles    
Events      
Averages and records for this station are not official NWS values.
T = Trace of Precipitation, MM = Missing Value Source: NWS Daily Summary

Daily Weather History Graph

Daily Weather History Graph

Search for Another Location

Airport or City:

Trip Planner

Search our weather history database for the weather conditions in past years. The results will help you decide how hot, cold, wet, or windy it might be!

Date:

Astronomy

Dec. 14, 2012 Rise Set
Actual Time 7:27 AM EST 5:13 PM EST
Civil Twilight 6:59 AM EST 5:41 PM EST
Nautical Twilight 6:27 AM EST 6:13 PM EST
Astronomical Twilight 5:56 AM EST 6:44 PM EST
Moon 8:32 AM EST (12/14) 7:02 PM EST (12/14)
Length of Visible Light 10h 42m
Length of Day
9h 45m
Waxing Crescent, 3% of the Moon is Illuminated
Dec 14
Waxing Crescent
Dec 20
First Quarter
Dec 28
Full
Jan 4
Last Quarter
Jan 11
New

Hourly Weather History & Observations

Time (EST) Temp. Windchill Dew Point Humidity Pressure Visibility Wind Dir Wind Speed Gust Speed Precip Events Conditions
12:53 AM 32.0 °F - 23.0 °F 69% 30.32 in 10.0 mi Calm Calm - N/A   Clear
1:53 AM 30.9 °F - 21.9 °F 69% 30.32 in 10.0 mi Calm Calm - N/A   Clear
2:53 AM 30.0 °F - 23.0 °F 75% 30.32 in 10.0 mi Calm Calm - N/A   Clear
3:53 AM 28.9 °F 23.9 °F 24.1 °F 82% 30.31 in 10.0 mi NNW 4.6 mph - N/A   Clear
4:53 AM 30.0 °F - 23.0 °F 75% 30.30 in 10.0 mi Calm Calm - N/A   Clear
5:53 AM 28.0 °F 22.8 °F 21.9 °F 78% 30.34 in 10.0 mi WNW 4.6 mph - N/A   Clear
6:53 AM 27.0 °F - 21.9 °F 81% 30.33 in 10.0 mi Calm Calm - N/A   Clear
7:53 AM 27.0 °F 23.0 °F 23.0 °F 85% 30.33 in 10.0 mi NW 3.5 mph - N/A   Clear
8:53 AM 30.9 °F - 25.0 °F 79% 30.35 in 10.0 mi Calm Calm - N/A   Clear
9:53 AM 37.9 °F - 27.0 °F 65% 30.36 in 10.0 mi Calm Calm - N/A   Clear
10:53 AM 44.1 °F 42.5 °F 27.0 °F 51% 30.35 in 10.0 mi West 3.5 mph - N/A   Clear
11:53 AM 50.0 °F - 26.1 °F 39% 30.31 in 10.0 mi Calm Calm - N/A   Clear
12:53 PM 53.1 °F - 26.1 °F 35% 30.27 in 10.0 mi Calm Calm - N/A   Clear
1:53 PM 55.9 °F - 27.0 °F 33% 30.22 in 10.0 mi Calm Calm - N/A   Clear
2:53 PM 57.0 °F - 26.1 °F 30% 30.22 in 10.0 mi Calm Calm - N/A   Clear
3:53 PM 55.9 °F - 26.1 °F 32% 30.22 in 10.0 mi Variable 3.5 mph - N/A   Clear
4:53 PM 54.0 °F - 26.1 °F 34% 30.21 in 10.0 mi Calm Calm - N/A   Clear
5:53 PM 48.0 °F - 27.0 °F 44% 30.22 in 10.0 mi Calm Calm - N/A   Clear
6:53 PM 46.9 °F - 26.1 °F 44% 30.24 in 10.0 mi Calm Calm - N/A   Clear
7:53 PM 45.0 °F - 26.1 °F 48% 30.22 in 10.0 mi Calm Calm - N/A   Clear
8:53 PM 39.9 °F 37.8 °F 28.9 °F 65% 30.23 in 10.0 mi NNE 3.5 mph - N/A   Clear
9:53 PM 39.9 °F - 28.0 °F 63% 30.23 in 10.0 mi Calm Calm - N/A   Clear
10:53 PM 37.0 °F - 28.0 °F 70% 30.22 in 10.0 mi Calm Calm - N/A   Clear
11:53 PM 37.9 °F - 28.9 °F 70% 30.22 in 10.0 mi Calm Calm - N/A   Clear